Regional Weather Roundup
Issued by NWS

Home | Current Version | Previous Version | Graphics & Text | Print | Product List | Glossary On
Versions: 1 2 3 4 5 6 7 8 9 10 11 12 13 14 15 16 17 18 19 20 21 22 23 24 25 26 27 28 29 30 31 32 33 34 35 36 37 38 39 40 41 42 43 44 45 46 47 48 49 50
000
ASUS45 KSLC 050710
RWRUT

UTAH REGIONAL WEATHER ROUNDUP
NATIONAL WEATHER SERVICE SALT LAKE CITY UT
100 AM MDT SUN JUL 05 2015

UTZ001>011-023>025-050800-

NORTHERN UTAH

CITY           SKY/WX    TMP DP  RH WIND       PRES   REMARKS
BRIGHAM CITY   CLOUDY    80  52  37 CALM      29.96R
HILL AFB       CLOUDY    77  53  43 SE3       29.99S
LOGAN          CLEAR     81  51  35 S14       29.95R
OGDEN          CLOUDY    78  55  44 S5        29.96S
PROVO AIRPORT  CLOUDY    75  54  46 SE9       30.00R
SALT LAKE CITY CLOUDY    82  56  40 E6        29.94F
VERNAL         CLOUDY    79  47  32 SE12      30.01R
WENDOVER       CLOUDY    79  52  38 S10       29.99S
HEBER CITY     CLOUDY    68  54  60 CALM      30.07S
WEST JORDAN    PTCLDY    75  52  43 SW6       29.98F

$$

UTZ012>022-026-027-050800-

SOUTHERN/CENTRAL UTAH

CITY           SKY/WX    TMP DP  RH WIND       PRES   REMARKS
BLANDING       CLOUDY    64  58  83 NE5       30.28R
BRYCE CANYON   CLOUDY    60  53  77 W8        30.26S
CEDAR CITY     CLOUDY    71  49  45 S7        30.11S
DELTA          CLOUDY    78  47  34 SE7       30.00F
HANKSVILLE     CLOUDY    68  63  83 E13       30.09R
MILFORD        CLOUDY    77  49  37 S10       30.04S
MOAB/CYNLANDS  CLOUDY    68  62  81 SE9       30.10S
PRICE          CLOUDY    69  56  62 E12       30.17R
ST GEORGE      CLOUDY    84  46  26 E5        29.93S
KANAB          PTCLDY    66  54  63 N5        30.13S

$$

REGIONAL REPORTS     COLORADO/ARIZONA

CITY           SKY/WX    TMP DP  RH WIND       PRES   REMARKS
CRAIG, CO      MOCLDY    65  51  60 E8        30.11S
GRAND JUNCTION LGT RAIN  69  61  75 N16       30.07R
RIFLE          CLOUDY    65  59  81 CALM      30.10R
MONTROSE       CLOUDY    74  49  41 SW5       30.15R
CORTEZ         CLOUDY    65  57  75 CALM      30.22R
PAGE, AZ       CLOUDY    81  50  33 S3        30.00F
GRAND CANYON   MOCLDY    60  54  80 CALM      30.23S
KINGMAN        PTCLDY    79  50  36 S8        29.98R
FLAGSTAFF      CLOUDY    57  56  96 CALM      30.27F

$$

REGIONAL REPORTS    NEVADA/IDAHO/WYOMING

CITY           SKY/WX    TMP DP  RH WIND       PRES   REMARKS
LAS VEGAS, NV  PTCLDY    92  49  22 S9        29.79F
ELY            CLOUDY    65  50  58 SE3       30.15F
ELKO           CLOUDY    68  55  63 W7        30.08S
POCATELLO, ID  CLEAR     77  47  34 SW9       29.92R
BURLEY         CLOUDY    75  51  43 W9        29.88F
EVANSTON, WY   CLOUDY    67  47  48 SW10      30.16S
ROCK SPRINGS   MOCLDY    71  44  37 W14       30.10R
KEMMERER       MOCLDY    64  46  52 SW7       30.16S

$$


USA.gov is the U.S. government's official web portal to all federal, state and local government web resources and services.